User: anonymous   Login
Location: Heiligenberg
(48.5381°N, 7.3897°E)
Time: 20:33:49
(UTC+00:00)
Language:

USA 32 - Orbit

View from above orbital plane
View from above orbital plane
View from above satellite
View from above satellite

Ground track
Ground track

The orbit data is extracted from the following two-line orbital elements,

1 19460U 88078A   22225.09778427 0.00000050  00000-0  18077-4 0    03
2 19460  84.9828 208.8790 0008121  37.0359 322.9639 14.33595739    07
Epoch (UTC): 13 August 2022 02:20:48
Eccentricity: 0.0008121
inclination: 84.9828°
perigee height: 774 km
apogee height: 785 km
right ascension of ascending node: 208.8790°
argument of perigee: 37.0359°
revolutions per day: 14.33595739
mean anomaly at epoch: 322.9639°
orbit number at epoch: 0

The dashed part of the orbit path shows where the satellite is in the earth's shadow,  

DLR